sat.trackr.live / text

‹ back to catalog

SMAP

NORAD 40376 · 2015-003A

PAYLOAD ACTIVE UNKNOWN

§ Identity

Operator
Country
US
Launch date
2015-01-31
Launch site
AFWTR
Launch vehicle
Mass (kg)
RCS (m²)
4.28

Purposes: earth_obs

External: N2YO · Heavens-Above · Gunter

§ Orbital elements

Epoch: 2026-05-25T04:10:02.934048Z

Period
98.40 min
Inclination
98.1279°
Eccentricity
0.0001265
Mean motion
14.63342735 rev/d
Perigee alt
681.5 km
Apogee alt
683.3 km
Semi-major
7,060.5 km
B*
8.3027e-5
RAAN
152.5947°
Arg perigee
88.0629°
Mean anomaly
272.0718°
Rev number
60,425

§ Raw data

SMAP1 40376U 15003A   26145.17364507  .00000382  00000+0  83027-4 0  99962 40376  98.1279 152.5947 0001265  88.0629 272.0718 14.63342735604250

JSON: /api/v1/satellites/40376 · /tle

For live sub-satellite position, see the globe view (requires WebGL).

§ Visibility from observer

Set your observer location to see the next 7 days of passes ≥ 10°. The values pass through the URL so the page stays shareable.

No JS? Fill the form by hand. The geolocation button needs JavaScript.

§ Radio — SatNOGS DB

ModeDescriptionDownlinkUplink
FM Mode X 8.180 GHz
DBPSK S-Band 9k6 DBPSK Telemetry Experimental 2.274 GHz
DBPSK S-Band DBPSK Telemetry 2.274 GHz

3 transmitters · refreshed weekly from db.satnogs.org